This is the latest recevied weather packets stored in our database for station/object EA7JCM-13. If no packets are shown the sender has not sent any weather packets the latest 10 day(s).
| Time | Temp. | Humidity | Pressure | Rain* | Wind** | Luminosity | Snow |
|---|---|---|---|---|---|---|---|
| 1777831803 | 20° C | 49% | 1009.2 hPa | 0 mm | - | - | - |
| 1777831502 | 20° C | 49% | 1009.3 hPa | 0 mm | - | - | - |
| 1777831202 | 20.56° C | 49% | 1009.2 hPa | 0 mm | - | - | - |
| 1777830903 | 20° C | 50% | 1009.1 hPa | 0 mm | - | - | - |
| 1777830602 | 20° C | 50% | 1009.3 hPa | 0 mm | - | - | - |
| 1777830302 | 20° C | 50% | 1008.9 hPa | 0 mm | - | - | - |
| 1777830002 | 20.56° C | 50% | 1009.2 hPa | 0 mm | - | - | - |
| 1777829702 | 20.56° C | 50% | 1009.1 hPa | 0 mm | - | - | - |
| 1777829402 | 20.56° C | 49% | 1009.2 hPa | 0 mm | - | - | - |
| 1777829102 | 21.11° C | 50% | 1009 hPa | 0 mm | - | - | - |
| 1777828803 | 20° C | 52% | 1009 hPa | 0 mm | - | - | - |
| 1777828503 | 20.56° C | 52% | 1009 hPa | 0 mm | - | - | - |
| 1777828203 | 20.56° C | 52% | 1009.1 hPa | 0 mm | - | - | - |
| 1777827902 | 20.56° C | 52% | 1008.9 hPa | 0 mm | - | - | - |
| 1777827603 | 20.56° C | 52% | 1008.9 hPa | 0 mm | - | - | - |
| 1777827302 | 21.11° C | 51% | 1009 hPa | 0 mm | - | - | - |
| 1777827002 | 21.11° C | 51% | 1009.1 hPa | 0 mm | - | - | - |
| 1777826703 | 20.56° C | 52% | 1009.1 hPa | 0 mm | - | - | - |
| 1777826403 | 20.56° C | 52% | 1008.9 hPa | 0 mm | - | - | - |
| 1777826102 | 20.56° C | 52% | 1008.8 hPa | 0 mm | - | - | - |
| 1777825802 | 21.11° C | 51% | 1009 hPa | 0 mm | - | - | - |
| 1777825502 | 21.11° C | 50% | 1009 hPa | 0 mm | - | - | - |
| 1777825202 | 21.67° C | 49% | 1009.1 hPa | 0 mm | - | - | - |
| 1777824902 | 21.67° C | 49% | 1008.8 hPa | 0 mm | - | - | - |
| 1777824603 | 21.11° C | 51% | 1009 hPa | 0 mm | - | - | - |
* Rain latest hour (hover to see other rain measurements)
** Current wind speed in m/s (hover to see current wind gust speed)